{"data":{"norad_id":27844,"epoch":"2026-05-24T23:53:49.036416Z","epoch_age_seconds":78649,"freshness":"FRESH","line1":"1 27844U 03031E   26144.99570644  .00000230  00000+0  11839-3 0  9992","line2":"2 27844  98.6739 153.8464 0008353 250.3425 109.6853 14.24319183188375","mean_motion":14.24319183,"eccentricity":0.0008353,"inclination_deg":98.6739,"raan_deg":153.8464,"arg_perigee_deg":250.3425,"mean_anomaly_deg":109.6853,"bstar":0.00011839,"rev_number":18837,"period_min":101.1009341998,"perigee_km":804.77768093823,"apogee_km":816.78748999772,"semimajor_km":7188.919585468,"source":"CELESTRAK","updated_at":"2026-05-25T13:38:25.484958Z"}}